Weather History for KSYF - March, 2013

Change the Weather History Date:

Friday, March 1, 2013

  Actual Average Record
Temperature  
Mean Temperature 35 °F -  
Max Temperature 46 °F 51 °F 46 °F (2013)
Min Temperature 24 °F 23 °F 2 °F (2014)
Degree Days  
Heating Degree Days 30    
Moisture  
Dew Point 23 °F    
Average Humidity 65    
Maximum Humidity 86    
Minimum Humidity 38    
Precipitation  
Precipitation 0.00 in - - ()
Sea Level Pressure  
Sea Level Pressure 30.25 in    
Wind  
Wind Speed 8 mph (NNW)    
Max Wind Speed 18 mph    
Max Gust Speed 25 mph    
Visibility 10 miles    
Events      
Averages and records for this station are not official NWS values.
T = Trace of Precipitation, MM = Missing Value Source: NWS Daily Summary

Daily Weather History Graph

Daily Weather History Graph

Search for Another Location

Airport or City:

Trip Planner

Search our weather history database for the weather conditions in past years. The results will help you decide how hot, cold, wet, or windy it might be!

Date:

Astronomy

Mar. 01, 2013 Rise Set
Actual Time 7:19 AM CST 6:39 PM CST
Civil Twilight 6:52 AM CST 7:06 PM CST
Nautical Twilight 6:21 AM CST 7:37 PM CST
Astronomical Twilight 5:50 AM CST 8:09 PM CST
Moon 11:14 PM CST (3/1) 9:08 AM CST (3/1)
Length of Visible Light 12h 13m
Length of Day
11h 19m
Waning Gibbous, 83% of the Moon is Illuminated
Mar 1
Waning Gibbous
Mar 4
Last Quarter
Mar 11
New
Mar 19
First Quarter
Mar 27
Full

Hourly Weather History & Observations

Time (CST) Temp. Windchill Dew Point Humidity Pressure Visibility Wind Dir Wind Speed Gust Speed Precip Events Conditions
12:15 AM 31.6 °F 28.3 °F 24.3 °F 74% 30.17 in 10.0 mi WNW 3.5 mph - N/A   Overcast
12:35 AM 32.0 °F 25.6 °F 24.1 °F 73% 30.18 in 10.0 mi WNW 6.9 mph - N/A   Overcast
12:55 AM 32.7 °F 23.9 °F 24.1 °F 71% 30.19 in 10.0 mi NW 11.5 mph - N/A   Overcast
1:15 AM 34.9 °F 26.6 °F 22.6 °F 61% 30.19 in 10.0 mi NNW 11.5 mph 18.4 mph N/A   Overcast
1:35 AM 35.4 °F 26.8 °F 22.6 °F 60% 30.19 in 10.0 mi NNW 12.7 mph 21.9 mph N/A   Overcast
1:55 AM 34.0 °F 26.6 °F 23.4 °F 65% 30.20 in 10.0 mi NW 9.2 mph - N/A   Mostly Cloudy
2:15 AM 31.6 °F 25.1 °F 23.0 °F 70% 30.20 in 10.0 mi NW 6.9 mph - N/A   Scattered Clouds
2:35 AM 30.0 °F 22.4 °F 23.0 °F 75% 30.20 in 10.0 mi NW 8.1 mph - N/A   Clear
2:55 AM 30.0 °F 22.4 °F 23.5 °F 77% 30.21 in 10.0 mi NW 8.1 mph - N/A   Clear
3:15 AM 28.9 °F 22.8 °F 23.0 °F 78% 30.21 in 10.0 mi WNW 5.8 mph - N/A   Clear
3:35 AM 28.0 °F 20.8 °F 22.6 °F 80% 30.21 in 10.0 mi NW 6.9 mph - N/A   Clear
3:55 AM 28.4 °F 21.2 °F 22.6 °F 79% 30.20 in 10.0 mi NW 6.9 mph - N/A   Clear
4:15 AM 27.5 °F 19.3 °F 22.1 °F 80% 30.21 in 10.0 mi NW 8.1 mph - N/A   Clear
4:35 AM 26.2 °F 19.6 °F 21.2 °F 81% 30.21 in 10.0 mi WNW 5.8 mph - N/A   Clear
5:15 AM 26.2 °F - 21.2 °F 81% 30.22 in 10.0 mi Calm Calm - N/A   Clear
5:35 AM 24.8 °F 17.9 °F 20.1 °F 82% 30.23 in 10.0 mi WNW 5.8 mph - N/A   Clear
5:55 AM 24.1 °F 17.0 °F 19.8 °F 84% 30.23 in 10.0 mi ENE 5.8 mph - N/A   Clear
6:15 AM 25.3 °F 19.7 °F 20.3 °F 81% 30.24 in 10.0 mi North 4.6 mph - N/A   Clear
6:35 AM 24.8 °F 20.5 °F 20.5 °F 84% 30.24 in 10.0 mi NNW 3.5 mph - N/A   Clear
6:55 AM 25.3 °F 18.5 °F 21.2 °F 84% 30.24 in 10.0 mi NW 5.8 mph - N/A   Clear
7:15 AM 24.8 °F 14.0 °F 21.0 °F 86% 30.24 in 10.0 mi NW 11.5 mph - N/A   Clear
7:35 AM 25.3 °F 16.7 °F 21.2 °F 84% 30.24 in 10.0 mi NW 8.1 mph - N/A   Clear
7:55 AM 26.6 °F 19.1 °F 21.9 °F 82% 30.25 in 10.0 mi NW 6.9 mph - N/A   Clear
8:35 AM 30.0 °F 25.2 °F 23.9 °F 78% 30.26 in 10.0 mi NW 4.6 mph - N/A   Clear
8:55 AM 32.4 °F 24.0 °F 24.8 °F 74% 30.27 in 10.0 mi NW 10.4 mph - N/A   Clear
9:15 AM 33.8 °F 25.3 °F 24.6 °F 69% 30.27 in 10.0 mi NW 11.5 mph - N/A   Scattered Clouds
9:35 AM 36.0 °F 28.5 °F 25.0 °F 64% 30.28 in 10.0 mi NW 10.4 mph - N/A   Clear
9:55 AM 37.6 °F 29.6 °F 24.6 °F 60% 30.28 in 10.0 mi NW 12.7 mph 17.3 mph N/A   Clear
10:15 AM 38.3 °F 29.7 °F 24.6 °F 58% 30.28 in 10.0 mi NW 15.0 mph 18.4 mph N/A   Mostly Cloudy
10:35 AM 38.5 °F 31.1 °F 24.8 °F 58% 30.28 in 10.0 mi NW 11.5 mph - N/A   Overcast
10:55 AM 38.3 °F 30.1 °F 24.6 °F 58% 30.28 in 10.0 mi NW 13.8 mph 18.4 mph N/A   Overcast
11:15 AM 39.0 °F 31.0 °F 25.0 °F 57% 30.29 in 10.0 mi NNW 13.8 mph 18.4 mph N/A   Overcast
11:35 AM 39.9 °F 32.5 °F 25.3 °F 56% 30.29 in 10.0 mi NNW 12.7 mph 16.1 mph N/A   Mostly Cloudy
11:55 AM 42.1 °F 34.9 °F 23.5 °F 48% 30.28 in 10.0 mi North 13.8 mph 20.7 mph N/A   Mostly Cloudy
12:15 PM 42.8 °F 35.4 °F 22.3 °F 44% 30.28 in 10.0 mi NNW 15.0 mph 23.0 mph N/A   Mostly Cloudy
12:35 PM 44.1 °F 37.1 °F 20.8 °F 40% 30.28 in 10.0 mi North 15.0 mph - N/A   Scattered Clouds
12:55 PM 44.2 °F 38.4 °F 21.6 °F 41% 30.28 in 10.0 mi NNW 11.5 mph - N/A   Scattered Clouds
1:15 PM 44.8 °F 37.7 °F 21.7 °F 40% 30.26 in 10.0 mi North 16.1 mph 21.9 mph N/A   Scattered Clouds
1:35 PM 45.7 °F 39.1 °F 21.9 °F 39% 30.26 in 10.0 mi North 15.0 mph 20.7 mph N/A   Scattered Clouds
1:55 PM 44.1 °F 37.4 °F 21.0 °F 40% 30.25 in 10.0 mi NNW 13.8 mph 23.0 mph N/A   Clear
2:15 PM 46.0 °F 39.3 °F 21.6 °F 38% 30.25 in 10.0 mi NNW 16.1 mph 20.7 mph N/A   Scattered Clouds
2:35 PM 44.6 °F 37.8 °F 21.4 °F 40% 30.24 in 10.0 mi North 15.0 mph 20.7 mph N/A   Scattered Clouds
2:55 PM 44.2 °F 36.4 °F 20.1 °F 38% 30.24 in 10.0 mi North 18.4 mph 25.3 mph N/A   Scattered Clouds
3:15 PM 42.8 °F 34.8 °F 20.5 °F 41% 30.24 in 10.0 mi North 17.3 mph 21.9 mph N/A   Scattered Clouds
3:35 PM 42.8 °F 35.8 °F 20.8 °F 42% 30.24 in 10.0 mi North 13.8 mph - N/A   Clear
3:55 PM 43.5 °F 35.8 °F 20.8 °F 41% 30.24 in 10.0 mi North 17.3 mph 21.9 mph N/A   Clear
4:15 PM 42.8 °F 36.2 °F 21.9 °F 44% 30.24 in 10.0 mi North 12.7 mph - N/A   Mostly Cloudy
4:35 PM 42.8 °F 36.2 °F 21.9 °F 44% 30.25 in 10.0 mi NNE 12.7 mph - N/A   Overcast
4:55 PM 43.7 °F 37.3 °F 22.1 °F 42% 30.25 in 10.0 mi NNE 12.7 mph - N/A   Mostly Cloudy
5:15 PM 41.2 °F 35.5 °F 22.1 °F 47% 30.25 in 10.0 mi North 9.2 mph - N/A   Scattered Clouds
6:15 PM 37.4 °F 32.8 °F 22.8 °F 56% 30.26 in 10.0 mi North 5.8 mph - N/A   Clear
6:35 PM 35.8 °F 33.0 °F 23.2 °F 60% 30.26 in 10.0 mi North 3.5 mph - N/A   Clear
6:55 PM 34.5 °F 30.4 °F 23.7 °F 65% 30.26 in 10.0 mi NNE 4.6 mph - N/A   Clear
7:15 PM 34.0 °F - 23.9 °F 67% 30.26 in 10.0 mi Calm Calm - N/A   Clear
7:35 PM 33.1 °F - 24.6 °F 71% 30.27 in 10.0 mi Calm Calm - N/A   Clear
7:55 PM 33.6 °F - 24.1 °F 68% 30.27 in 10.0 mi Calm Calm - N/A   Clear
8:15 PM 32.7 °F 29.6 °F 23.9 °F 70% 30.26 in 10.0 mi West 3.5 mph - N/A   Clear
8:35 PM 31.1 °F 26.4 °F 23.4 °F 73% 30.27 in 10.0 mi WSW 4.6 mph - N/A   Clear
9:15 PM 27.7 °F 22.4 °F 22.5 °F 81% 30.28 in 10.0 mi ESE 4.6 mph - N/A   Clear
9:35 PM 29.5 °F 25.9 °F 23.2 °F 77% 30.28 in 10.0 mi South 3.5 mph - N/A   Clear
9:55 PM 27.7 °F - 22.5 °F 81% 30.28 in 10.0 mi Calm Calm - N/A   Clear
10:15 PM 30.6 °F 27.1 °F 23.9 °F 76% 30.28 in 10.0 mi SSW 3.5 mph - N/A   Scattered Clouds
10:55 PM 27.5 °F 21.1 °F 23.5 °F 85% 30.28 in 10.0 mi SSW 5.8 mph - N/A   Scattered Clouds
11:15 PM 26.8 °F 18.5 °F 23.2 °F 86% 30.26 in 10.0 mi SSW 8.1 mph - N/A   Clear
11:35 PM 28.6 °F 19.9 °F 24.1 °F 83% 30.26 in 10.0 mi South 9.2 mph - N/A   Clear
11:55 PM 28.4 °F 19.7 °F 24.4 °F 85% 30.26 in 10.0 mi South 9.2 mph - N/A   Mostly Cloudy